Year,Month,Day,Hour,Minute,Value (Times are PST for windgust in km/hr)
2013,09,30,00,00,43.50
2013,09,30,00,01,37.00
2013,09,30,00,02,25.70
2013,09,30,00,03,25.70
2013,09,30,00,04,25.70
2013,09,30,00,05,35.40
2013,09,30,00,06,40.20
2013,09,30,00,07,30.60
2013,09,30,00,08,22.50
2013,09,30,00,09,20.90
2013,09,30,00,10,17.70
2013,09,30,00,11,25.70
2013,09,30,00,12,37.00
2013,09,30,00,13,35.40
2013,09,30,00,14,19.30
2013,09,30,00,15,20.90
2013,09,30,00,16,12.90
2013,09,30,00,17,24.20
2013,09,30,00,18,37.00
2013,09,30,00,19,30.60
2013,09,30,00,20,30.60
2013,09,30,00,21,29.00
2013,09,30,00,22,27.40
2013,09,30,00,23,27.40
2013,09,30,00,24,11.30
2013,09,30,00,25,20.90
2013,09,30,00,26,16.10
2013,09,30,00,27,25.70
2013,09,30,00,28,35.40
2013,09,30,00,29,32.20
2013,09,30,00,30,19.30
2013,09,30,00,31,27.40
2013,09,30,00,32,32.20
2013,09,30,00,33,20.90
2013,09,30,00,34,24.20
2013,09,30,00,35,22.50
2013,09,30,00,36,19.30
2013,09,30,00,37,17.70
2013,09,30,00,38,22.50
2013,09,30,00,39,30.60
2013,09,30,00,40,24.20
2013,09,30,00,41,22.50
2013,09,30,00,42,30.60
2013,09,30,00,43,29.00
2013,09,30,00,44,33.80
2013,09,30,00,45,35.40
2013,09,30,00,46,32.20
2013,09,30,00,47,32.20
2013,09,30,00,48,27.40
2013,09,30,00,49,30.60
2013,09,30,00,50,30.60
2013,09,30,00,51,22.50
2013,09,30,00,52,30.60
2013,09,30,00,53,19.30
2013,09,30,00,54,51.50
2013,09,30,00,55,43.50
2013,09,30,00,56,19.30
2013,09,30,00,57,17.70
2013,09,30,00,58,22.50
2013,09,30,00,59,30.60
2013,09,30,01,00,17.70
2013,09,30,01,01,27.40
2013,09,30,01,02,22.50
2013,09,30,01,03,19.30
2013,09,30,01,04,22.50
2013,09,30,01,05,27.40
2013,09,30,01,06,37.00
2013,09,30,01,07,24.20
2013,09,30,01,08,9.60
2013,09,30,01,09,9.60
2013,09,30,01,10,9.60
2013,09,30,01,11,9.60
2013,09,30,01,12,9.60
2013,09,30,01,13,9.60
2013,09,30,01,14,9.60
2013,09,30,01,15,20.90
2013,09,30,01,16,25.70
2013,09,30,01,17,24.20
2013,09,30,01,18,27.40
2013,09,30,01,19,32.20
2013,09,30,01,20,24.20
2013,09,30,01,21,20.90
2013,09,30,01,22,30.60
2013,09,30,01,23,32.20
2013,09,30,01,24,25.70
2013,09,30,01,25,17.70
2013,09,30,01,26,20.90
2013,09,30,01,27,16.10
2013,09,30,01,28,17.70
2013,09,30,01,29,27.40
2013,09,30,01,30,30.60
2013,09,30,01,31,22.50
2013,09,30,01,32,37.00
2013,09,30,01,33,11.30
2013,09,30,01,34,12.90
2013,09,30,01,35,17.70
2013,09,30,01,36,33.80
2013,09,30,01,37,25.70
2013,09,30,01,38,24.20
2013,09,30,01,39,38.60
2013,09,30,01,40,30.60
2013,09,30,01,41,19.30
2013,09,30,01,42,22.50
2013,09,30,01,43,29.00
2013,09,30,01,44,19.30
2013,09,30,01,45,22.50
2013,09,30,01,46,19.30
2013,09,30,01,47,22.50
2013,09,30,01,48,24.20
2013,09,30,01,49,22.50
2013,09,30,01,50,33.80
2013,09,30,01,51,29.00
2013,09,30,01,52,24.20
2013,09,30,01,53,27.40
2013,09,30,01,54,37.00
2013,09,30,01,55,32.20
2013,09,30,01,56,24.20
2013,09,30,01,57,22.50
2013,09,30,01,58,20.90
2013,09,30,01,59,17.70
2013,09,30,02,00,29.00
2013,09,30,02,01,12.90
2013,09,30,02,02,14.50
2013,09,30,02,03,30.60
2013,09,30,02,04,22.50
2013,09,30,02,05,30.60
2013,09,30,02,06,22.50
2013,09,30,02,07,20.90
2013,09,30,02,08,17.70
2013,09,30,02,09,17.70
2013,09,30,02,10,27.40
2013,09,30,02,11,17.70
2013,09,30,02,12,24.20
2013,09,30,02,13,25.70
2013,09,30,02,14,30.60
2013,09,30,02,15,29.00
2013,09,30,02,16,25.70
2013,09,30,02,17,30.60
2013,09,30,02,18,20.90
2013,09,30,02,19,20.90
2013,09,30,02,20,16.10
2013,09,30,02,21,27.40
2013,09,30,02,22,22.50
2013,09,30,02,23,14.50
2013,09,30,02,24,32.20
2013,09,30,02,25,32.20
2013,09,30,02,26,25.70
2013,09,30,02,27,29.00
2013,09,30,02,28,17.70
2013,09,30,02,29,35.40
2013,09,30,02,30,19.30
2013,09,30,02,31,19.30
2013,09,30,02,32,16.10
2013,09,30,02,33,14.50
2013,09,30,02,34,25.70
2013,09,30,02,35,24.20
2013,09,30,02,36,22.50
2013,09,30,02,37,20.90
2013,09,30,02,38,30.60
2013,09,30,02,39,20.90
2013,09,30,02,40,25.70
2013,09,30,02,41,25.70
2013,09,30,02,42,17.70
2013,09,30,02,43,16.10
2013,09,30,02,44,17.70
2013,09,30,02,45,14.50
2013,09,30,02,46,16.10
2013,09,30,02,47,14.50
2013,09,30,02,48,22.50
2013,09,30,02,49,12.90
2013,09,30,02,50,16.10
2013,09,30,02,51,16.10
2013,09,30,02,52,19.30
2013,09,30,02,53,30.60
2013,09,30,02,54,29.00
2013,09,30,02,55,27.40
2013,09,30,02,56,20.90
2013,09,30,02,57,25.70
2013,09,30,02,58,22.50
2013,09,30,02,59,17.70
2013,09,30,03,00,20.90
2013,09,30,03,01,19.30
2013,09,30,03,02,20.90
2013,09,30,03,03,25.70
2013,09,30,03,04,20.90
2013,09,30,03,05,19.30
2013,09,30,03,06,9.60
2013,09,30,03,07,11.30
2013,09,30,03,08,16.10
2013,09,30,03,09,12.90
2013,09,30,03,10,20.90
2013,09,30,03,11,30.60
2013,09,30,03,12,24.20
2013,09,30,03,13,20.90
2013,09,30,03,14,35.40
2013,09,30,03,15,38.60
2013,09,30,03,16,22.50
2013,09,30,03,17,17.70
2013,09,30,03,18,27.40
2013,09,30,03,19,17.70
2013,09,30,03,20,24.20
2013,09,30,03,21,24.20
2013,09,30,03,22,24.20
2013,09,30,03,23,30.60
2013,09,30,03,24,19.30
2013,09,30,03,25,24.20
2013,09,30,03,26,19.30
2013,09,30,03,27,19.30
2013,09,30,03,28,9.60
2013,09,30,03,29,29.00
2013,09,30,03,30,19.30
2013,09,30,03,31,19.30
2013,09,30,03,32,16.10
2013,09,30,03,33,19.30
2013,09,30,03,34,17.70
2013,09,30,03,35,12.90
2013,09,30,03,36,12.90
2013,09,30,03,37,8.10
2013,09,30,03,38,22.50
2013,09,30,03,39,19.30
2013,09,30,03,40,22.50
2013,09,30,03,41,20.90
2013,09,30,03,42,24.20
2013,09,30,03,43,14.50
2013,09,30,03,44,9.60
2013,09,30,03,45,22.50
2013,09,30,03,46,12.90
2013,09,30,03,47,14.50
2013,09,30,03,48,11.30
2013,09,30,03,49,8.10
2013,09,30,03,50,11.30
2013,09,30,03,51,11.30
2013,09,30,03,52,16.10
2013,09,30,03,53,19.30
2013,09,30,03,54,16.10
2013,09,30,03,55,19.30
2013,09,30,03,56,8.10
2013,09,30,03,57,4.80
2013,09,30,03,58,12.90
2013,09,30,03,59,17.70
2013,09,30,04,00,17.70
2013,09,30,04,01,22.50
2013,09,30,04,02,20.90
2013,09,30,04,03,20.90
2013,09,30,04,04,17.70
2013,09,30,04,05,12.90
2013,09,30,04,06,17.70
2013,09,30,04,07,11.30
2013,09,30,04,08,17.70
2013,09,30,04,09,16.10
2013,09,30,04,10,20.90
2013,09,30,04,11,11.30
2013,09,30,04,12,8.10
2013,09,30,04,13,9.60
2013,09,30,04,14,14.50
2013,09,30,04,15,16.10
2013,09,30,04,16,22.50
2013,09,30,04,17,16.10
2013,09,30,04,18,19.30
2013,09,30,04,19,12.90
2013,09,30,04,20,12.90
2013,09,30,04,21,12.90
2013,09,30,04,22,9.60
2013,09,30,04,23,8.10
2013,09,30,04,24,20.90
2013,09,30,04,25,17.70
2013,09,30,04,26,17.70
2013,09,30,04,27,16.10
2013,09,30,04,28,24.20
2013,09,30,04,29,22.50
2013,09,30,04,30,17.70
2013,09,30,04,31,14.50
2013,09,30,04,32,9.60
2013,09,30,04,33,11.30
2013,09,30,04,34,16.10
2013,09,30,04,35,19.30
2013,09,30,04,36,9.60
2013,09,30,04,37,11.30
2013,09,30,04,38,6.40
2013,09,30,04,39,4.80
2013,09,30,04,44,11.30
2013,09,30,04,45,11.30
2013,09,30,04,46,8.10
2013,09,30,04,47,1.60
2013,09,30,04,48,6.40
2013,09,30,04,56,3.20
2013,09,30,04,57,3.20
2013,09,30,05,00,1.60
2013,09,30,05,06,4.80
2013,09,30,05,07,3.20
2013,09,30,05,09,3.20
2013,09,30,05,10,6.40
2013,09,30,05,11,3.20
2013,09,30,05,13,6.40
2013,09,30,05,14,12.90
2013,09,30,05,15,9.60
2013,09,30,05,16,6.40
2013,09,30,05,17,6.40
2013,09,30,05,18,6.40
2013,09,30,05,19,11.30
2013,09,30,05,20,12.90
2013,09,30,05,21,8.10
2013,09,30,05,22,14.50
2013,09,30,05,23,14.50
2013,09,30,05,24,8.10
2013,09,30,05,25,24.20
2013,09,30,05,26,17.70
2013,09,30,05,27,16.10
2013,09,30,05,28,14.50
2013,09,30,05,29,12.90
2013,09,30,05,30,9.60
2013,09,30,05,31,12.90
2013,09,30,05,32,17.70
2013,09,30,05,33,17.70
2013,09,30,05,34,14.50
2013,09,30,05,35,16.10
2013,09,30,05,36,11.30
2013,09,30,05,37,11.30
2013,09,30,05,38,9.60
2013,09,30,05,39,9.60
2013,09,30,05,40,9.60
2013,09,30,05,41,8.10
2013,09,30,05,42,6.40
2013,09,30,05,43,9.60
2013,09,30,05,44,6.40
2013,09,30,05,45,3.20
2013,09,30,05,46,12.90
2013,09,30,05,47,17.70
2013,09,30,05,48,14.50
2013,09,30,05,49,17.70
2013,09,30,05,50,14.50
2013,09,30,05,51,14.50
2013,09,30,05,52,14.50
2013,09,30,05,53,19.30
2013,09,30,05,54,14.50
2013,09,30,05,55,11.30
2013,09,30,05,56,9.60
2013,09,30,05,57,9.60
2013,09,30,05,58,9.60
2013,09,30,05,59,14.50
2013,09,30,06,00,16.10
2013,09,30,06,01,6.40
2013,09,30,06,02,8.10
2013,09,30,06,03,8.10
2013,09,30,06,04,12.90
2013,09,30,06,05,12.90
2013,09,30,06,06,11.30
2013,09,30,06,07,11.30
2013,09,30,06,08,3.20
2013,09,30,06,09,6.40
2013,09,30,06,10,6.40
2013,09,30,06,12,9.60
2013,09,30,06,13,6.40
2013,09,30,06,14,6.40
2013,09,30,06,15,3.20
2013,09,30,06,17,1.60
2013,09,30,06,18,3.20
2013,09,30,06,22,1.60
2013,09,30,06,28,6.40
2013,09,30,06,29,6.40
2013,09,30,06,30,3.20
2013,09,30,06,31,1.60
2013,09,30,06,32,6.40
2013,09,30,06,33,6.40
2013,09,30,06,34,8.10
2013,09,30,06,35,4.80
2013,09,30,06,36,4.80
2013,09,30,06,37,4.80
2013,09,30,06,38,4.80
2013,09,30,06,39,6.40
2013,09,30,06,40,6.40
2013,09,30,06,41,6.40
2013,09,30,06,42,8.10
2013,09,30,06,43,11.30
2013,09,30,06,44,9.60
2013,09,30,06,45,8.10
2013,09,30,06,46,4.80
2013,09,30,06,47,6.40
2013,09,30,06,48,6.40
2013,09,30,06,49,8.10
2013,09,30,06,50,9.60
2013,09,30,06,51,8.10
2013,09,30,06,52,6.40
2013,09,30,06,53,6.40
2013,09,30,06,54,6.40
2013,09,30,06,55,3.20
2013,09,30,06,56,3.20
2013,09,30,06,57,6.40
2013,09,30,06,58,8.10
2013,09,30,06,59,9.60
2013,09,30,07,00,11.30
2013,09,30,07,01,12.90
2013,09,30,07,02,6.40
2013,09,30,07,03,8.10
2013,09,30,07,04,6.40
2013,09,30,07,05,6.40
2013,09,30,07,06,9.60
2013,09,30,07,07,8.10
2013,09,30,07,08,8.10
2013,09,30,07,09,4.80
2013,09,30,07,10,6.40
2013,09,30,07,11,4.80
2013,09,30,07,12,6.40
2013,09,30,07,13,3.20
2013,09,30,07,14,3.20
2013,09,30,07,15,6.40
2013,09,30,07,16,6.40
2013,09,30,07,17,11.30
2013,09,30,07,18,11.30
2013,09,30,07,19,9.60
2013,09,30,07,20,9.60
2013,09,30,07,21,12.90
2013,09,30,07,22,11.30
2013,09,30,07,23,11.30
2013,09,30,07,24,8.10
2013,09,30,07,25,4.80
2013,09,30,07,26,3.20
2013,09,30,07,27,6.40
2013,09,30,07,28,6.40
2013,09,30,07,29,6.40
2013,09,30,07,30,8.10
2013,09,30,07,31,6.40
2013,09,30,07,32,3.20
2013,09,30,07,33,4.80
2013,09,30,07,34,6.40
2013,09,30,07,35,8.10
2013,09,30,07,36,8.10
2013,09,30,07,37,6.40
2013,09,30,07,38,4.80
2013,09,30,07,39,8.10
2013,09,30,07,40,6.40
2013,09,30,07,41,3.20
2013,09,30,07,42,6.40
2013,09,30,07,43,6.40
2013,09,30,07,44,8.10
2013,09,30,07,45,8.10
2013,09,30,07,46,8.10
2013,09,30,07,47,6.40
2013,09,30,07,48,6.40
2013,09,30,07,49,9.60
2013,09,30,07,50,9.60
2013,09,30,07,51,8.10
2013,09,30,07,52,9.60
2013,09,30,07,53,6.40
2013,09,30,07,54,8.10
2013,09,30,07,55,11.30
2013,09,30,07,56,8.10
2013,09,30,07,57,8.10
2013,09,30,07,58,6.40
2013,09,30,07,59,8.10
2013,09,30,08,00,4.80
2013,09,30,08,01,4.80
2013,09,30,08,02,6.40
2013,09,30,08,03,4.80
2013,09,30,08,04,4.80
2013,09,30,08,05,4.80
2013,09,30,08,06,4.80
2013,09,30,08,07,3.20
2013,09,30,08,08,3.20
2013,09,30,08,09,4.80
2013,09,30,08,10,3.20
2013,09,30,08,13,6.40
2013,09,30,08,14,4.80
2013,09,30,08,15,11.30
2013,09,30,08,16,11.30
2013,09,30,08,17,8.10
2013,09,30,08,19,8.10
2013,09,30,08,20,8.10
2013,09,30,08,21,8.10
2013,09,30,08,22,9.60
2013,09,30,08,23,12.90
2013,09,30,08,24,14.50
2013,09,30,08,25,16.10
2013,09,30,08,26,11.30
2013,09,30,08,27,19.30
2013,09,30,08,28,17.70
2013,09,30,08,29,9.60
2013,09,30,08,30,12.90
2013,09,30,08,31,11.30
2013,09,30,08,32,9.60
2013,09,30,08,33,12.90
2013,09,30,08,34,20.90
2013,09,30,08,35,9.60
2013,09,30,08,36,8.10
2013,09,30,08,37,11.30
2013,09,30,08,38,9.60
2013,09,30,08,39,9.60
2013,09,30,08,40,6.40
2013,09,30,08,41,4.80
2013,09,30,08,42,4.80
2013,09,30,08,43,12.90
2013,09,30,08,44,8.10
2013,09,30,08,45,8.10
2013,09,30,08,46,9.60
2013,09,30,08,47,4.80
2013,09,30,08,48,9.60
2013,09,30,08,49,6.40
2013,09,30,08,50,9.60
2013,09,30,08,51,9.60
2013,09,30,08,52,8.10
2013,09,30,08,53,11.30
2013,09,30,08,54,9.60
2013,09,30,08,55,9.60
2013,09,30,08,56,3.20
2013,09,30,08,57,12.90
2013,09,30,08,58,9.60
2013,09,30,08,59,6.40
2013,09,30,09,00,8.10
2013,09,30,09,01,11.30
2013,09,30,09,02,8.10
2013,09,30,09,03,9.60
2013,09,30,09,04,6.40
2013,09,30,09,05,6.40
2013,09,30,09,06,3.20
2013,09,30,09,07,4.80
2013,09,30,09,08,4.80
2013,09,30,09,09,6.40
2013,09,30,09,10,4.80
2013,09,30,09,11,11.30
2013,09,30,09,12,4.80
2013,09,30,09,13,9.60
2013,09,30,09,14,4.80
2013,09,30,09,15,3.20
2013,09,30,09,16,1.60
2013,09,30,09,17,4.80
2013,09,30,09,18,4.80
2013,09,30,09,19,6.40
2013,09,30,09,20,6.40
2013,09,30,09,21,1.60
2013,09,30,09,22,4.80
2013,09,30,09,23,4.80
2013,09,30,09,24,6.40
2013,09,30,09,25,6.40
2013,09,30,09,26,3.20
2013,09,30,09,27,1.60
2013,09,30,09,28,4.80
2013,09,30,09,29,1.60
2013,09,30,09,31,1.60
2013,09,30,09,32,1.60
2013,09,30,09,33,1.60
2013,09,30,09,34,1.60
2013,09,30,09,36,3.20
2013,09,30,09,37,4.80
2013,09,30,09,40,1.60
2013,09,30,09,42,1.60
2013,09,30,09,43,8.10
2013,09,30,09,44,8.10
2013,09,30,09,45,9.60
2013,09,30,09,46,9.60
2013,09,30,09,47,8.10
2013,09,30,09,48,14.50
2013,09,30,09,49,11.30
2013,09,30,09,50,6.40
2013,09,30,09,51,14.50
2013,09,30,09,52,14.50
2013,09,30,09,53,24.20
2013,09,30,09,54,30.60
2013,09,30,09,55,19.30
2013,09,30,09,56,19.30
2013,09,30,09,57,14.50
2013,09,30,09,58,9.60
2013,09,30,09,59,9.60
2013,09,30,10,00,9.60
2013,09,30,10,01,9.60
2013,09,30,10,02,6.40
2013,09,30,10,03,6.40
2013,09,30,10,04,4.80
2013,09,30,10,05,1.60
2013,09,30,10,06,3.20
2013,09,30,10,07,1.60
2013,09,30,10,08,3.20
2013,09,30,10,09,3.20
2013,09,30,10,10,4.80
2013,09,30,10,11,6.40
2013,09,30,10,12,6.40
2013,09,30,10,13,3.20
2013,09,30,10,14,1.60
2013,09,30,10,16,6.40
2013,09,30,10,17,8.10
2013,09,30,10,18,6.40
2013,09,30,10,19,3.20
2013,09,30,10,20,3.20
2013,09,30,10,21,8.10
2013,09,30,10,22,8.10
2013,09,30,10,28,1.60
2013,09,30,10,30,6.40
2013,09,30,10,31,6.40
2013,09,30,10,32,3.20
2013,09,30,10,33,1.60
2013,09,30,10,34,1.60
2013,09,30,10,35,1.60
2013,09,30,10,41,1.60
2013,09,30,10,43,1.60
2013,09,30,10,44,3.20
2013,09,30,10,45,1.60
2013,09,30,10,47,1.60
2013,09,30,10,51,1.60
2013,09,30,10,54,1.60
2013,09,30,10,55,6.40
2013,09,30,10,56,6.40
2013,09,30,10,57,4.80
2013,09,30,10,58,4.80
2013,09,30,10,59,1.60
2013,09,30,11,00,4.80
2013,09,30,11,03,1.60
2013,09,30,11,04,1.60
2013,09,30,11,05,1.60
2013,09,30,11,06,4.80
2013,09,30,11,07,1.60
2013,09,30,11,08,1.60
2013,09,30,11,09,1.60
2013,09,30,11,10,1.60
2013,09,30,11,11,1.60
2013,09,30,11,12,1.60
2013,09,30,11,13,1.60
2013,09,30,11,14,1.60
2013,09,30,11,15,3.20
2013,09,30,11,16,4.80
2013,09,30,11,17,4.80
2013,09,30,11,18,4.80
2013,09,30,11,19,3.20
2013,09,30,11,20,4.80
2013,09,30,11,21,4.80
2013,09,30,11,22,8.10
2013,09,30,11,23,6.40
2013,09,30,11,24,8.10
2013,09,30,11,25,8.10
2013,09,30,11,26,9.60
2013,09,30,11,27,8.10
2013,09,30,11,28,4.80
2013,09,30,11,29,8.10
2013,09,30,11,30,8.10
2013,09,30,11,31,9.60
2013,09,30,11,32,6.40
2013,09,30,11,33,4.80
2013,09,30,11,34,1.60
2013,09,30,11,35,1.60
2013,09,30,11,36,3.20
2013,09,30,11,37,3.20
2013,09,30,11,38,4.80
2013,09,30,11,39,3.20
2013,09,30,11,40,3.20
2013,09,30,11,41,1.60
2013,09,30,11,42,4.80
2013,09,30,11,43,4.80
2013,09,30,11,44,8.10
2013,09,30,11,45,6.40
2013,09,30,11,46,8.10
2013,09,30,11,47,6.40
2013,09,30,11,48,3.20
2013,09,30,11,49,8.10
2013,09,30,11,50,8.10
2013,09,30,11,51,8.10
2013,09,30,11,52,9.60
2013,09,30,11,53,8.10
2013,09,30,11,54,6.40
2013,09,30,11,55,8.10
2013,09,30,11,56,6.40
2013,09,30,11,57,8.10
2013,09,30,11,58,6.40
2013,09,30,11,59,3.20
2013,09,30,12,00,8.10
2013,09,30,12,01,8.10
2013,09,30,12,02,11.30
2013,09,30,12,03,9.60
2013,09,30,12,04,6.40
2013,09,30,12,05,6.40
2013,09,30,12,06,4.80
2013,09,30,12,07,3.20
2013,09,30,12,08,3.20
2013,09,30,12,09,1.60
2013,09,30,12,12,3.20
2013,09,30,12,13,3.20
2013,09,30,12,14,6.40
2013,09,30,12,15,4.80
2013,09,30,12,16,8.10
2013,09,30,12,17,8.10
2013,09,30,12,18,11.30
2013,09,30,12,19,11.30
2013,09,30,12,20,11.30
2013,09,30,12,21,11.30
2013,09,30,12,22,8.10
2013,09,30,12,23,6.40
2013,09,30,12,24,1.60
2013,09,30,12,27,1.60
2013,09,30,12,30,1.60
2013,09,30,12,31,3.20
2013,09,30,12,32,6.40
2013,09,30,12,33,3.20
2013,09,30,12,34,6.40
2013,09,30,12,35,6.40
2013,09,30,12,36,1.60
2013,09,30,12,37,8.10
2013,09,30,12,38,6.40
2013,09,30,12,39,6.40
2013,09,30,12,40,12.90
2013,09,30,12,41,11.30
2013,09,30,12,42,12.90
2013,09,30,12,43,9.60
2013,09,30,12,44,11.30
2013,09,30,12,45,9.60
2013,09,30,12,46,6.40
2013,09,30,12,47,8.10
2013,09,30,12,48,8.10
2013,09,30,12,49,8.10
2013,09,30,12,50,12.90
2013,09,30,12,51,6.40
2013,09,30,12,53,3.20
2013,09,30,12,55,4.80
2013,09,30,12,56,4.80
2013,09,30,12,57,12.90
2013,09,30,12,58,8.10
2013,09,30,12,59,8.10
2013,09,30,13,00,12.90
2013,09,30,13,01,25.70
2013,09,30,13,02,19.30
2013,09,30,13,03,24.20
2013,09,30,13,04,19.30
2013,09,30,13,05,19.30
2013,09,30,13,06,19.30
2013,09,30,13,07,12.90
2013,09,30,13,08,14.50
2013,09,30,13,09,12.90
2013,09,30,13,10,19.30
2013,09,30,13,11,17.70
2013,09,30,13,12,19.30
2013,09,30,13,13,17.70
2013,09,30,13,14,20.90
2013,09,30,13,15,17.70
2013,09,30,13,16,22.50
2013,09,30,13,17,22.50
2013,09,30,13,18,20.90
2013,09,30,13,19,19.30
2013,09,30,13,20,19.30
2013,09,30,13,21,19.30
2013,09,30,13,22,14.50
2013,09,30,13,23,16.10
2013,09,30,13,24,20.90
2013,09,30,13,25,12.90
2013,09,30,13,26,6.40
2013,09,30,13,27,12.90
2013,09,30,13,28,20.90
2013,09,30,13,29,20.90
2013,09,30,13,30,12.90
2013,09,30,13,31,3.20
2013,09,30,13,32,6.40
2013,09,30,13,33,9.60
2013,09,30,13,34,9.60
2013,09,30,13,35,9.60
2013,09,30,13,36,16.10
2013,09,30,13,37,11.30
2013,09,30,13,38,12.90
2013,09,30,13,39,6.40
2013,09,30,13,40,19.30
2013,09,30,13,41,19.30
2013,09,30,13,42,16.10
2013,09,30,13,43,24.20
2013,09,30,13,44,11.30
2013,09,30,13,45,9.60
2013,09,30,13,46,14.50
2013,09,30,13,47,19.30
2013,09,30,13,48,17.70
2013,09,30,13,49,8.10
2013,09,30,13,50,12.90
2013,09,30,13,51,16.10
2013,09,30,13,52,11.30
2013,09,30,13,53,11.30
2013,09,30,13,54,16.10
2013,09,30,13,55,8.10
2013,09,30,13,56,8.10
2013,09,30,13,57,8.10
2013,09,30,13,59,3.20
2013,09,30,14,00,3.20
2013,09,30,14,02,1.60
2013,09,30,14,03,3.20
2013,09,30,14,04,3.20
2013,09,30,14,05,8.10
2013,09,30,14,06,6.40
2013,09,30,14,07,14.50
2013,09,30,14,08,6.40
2013,09,30,14,09,6.40
2013,09,30,14,10,6.40
2013,09,30,14,11,8.10
2013,09,30,14,12,9.60
2013,09,30,14,13,11.30
2013,09,30,14,14,16.10
2013,09,30,14,15,16.10
2013,09,30,14,16,14.50
2013,09,30,14,17,8.10
2013,09,30,14,18,8.10
2013,09,30,14,19,11.30
2013,09,30,14,20,9.60
2013,09,30,14,21,16.10
2013,09,30,14,22,8.10
2013,09,30,14,23,9.60
2013,09,30,14,24,16.10
2013,09,30,14,25,14.50
2013,09,30,14,26,19.30
2013,09,30,14,27,27.40
2013,09,30,14,28,19.30
2013,09,30,14,29,20.90
2013,09,30,14,30,19.30
2013,09,30,14,31,14.50
2013,09,30,14,32,11.30
2013,09,30,14,33,17.70
2013,09,30,14,34,20.90
2013,09,30,14,35,22.50
2013,09,30,14,36,17.70
2013,09,30,14,37,12.90
2013,09,30,14,38,16.10
2013,09,30,14,39,9.60
2013,09,30,14,40,12.90
2013,09,30,14,41,6.40
2013,09,30,14,42,4.80
2013,09,30,14,43,9.60
2013,09,30,14,44,11.30
2013,09,30,14,45,8.10
2013,09,30,14,46,6.40
2013,09,30,14,47,9.60
2013,09,30,14,48,9.60
2013,09,30,14,49,11.30
2013,09,30,14,50,9.60
2013,09,30,14,51,14.50
2013,09,30,14,52,11.30
2013,09,30,14,53,11.30
2013,09,30,14,54,16.10
2013,09,30,14,55,14.50
2013,09,30,14,56,14.50
2013,09,30,14,57,17.70
2013,09,30,14,58,12.90
2013,09,30,14,59,8.10
2013,09,30,15,00,12.90
2013,09,30,15,01,14.50
2013,09,30,15,02,14.50
2013,09,30,15,03,6.40
2013,09,30,15,04,14.50
2013,09,30,15,05,16.10
2013,09,30,15,06,8.10
2013,09,30,15,07,9.60
2013,09,30,15,08,8.10
2013,09,30,15,09,3.20
2013,09,30,15,10,6.40
2013,09,30,15,11,12.90
2013,09,30,15,12,11.30
2013,09,30,15,13,11.30
2013,09,30,15,14,11.30
2013,09,30,15,15,14.50
2013,09,30,15,16,17.70
2013,09,30,15,17,19.30
2013,09,30,15,18,11.30
2013,09,30,15,19,20.90
2013,09,30,15,20,22.50
2013,09,30,15,21,17.70
2013,09,30,15,22,19.30
2013,09,30,15,23,22.50
2013,09,30,15,24,30.60
2013,09,30,15,25,22.50
2013,09,30,15,26,27.40
2013,09,30,15,27,20.90
2013,09,30,15,28,33.80
2013,09,30,15,29,27.40
2013,09,30,15,30,25.70
2013,09,30,15,31,30.60
2013,09,30,15,32,17.70
2013,09,30,15,33,25.70
2013,09,30,15,34,19.30
2013,09,30,15,35,19.30
2013,09,30,15,36,16.10
2013,09,30,15,37,14.50
2013,09,30,15,38,12.90
2013,09,30,15,39,14.50
2013,09,30,15,40,16.10
2013,09,30,15,41,9.60
2013,09,30,15,42,14.50
2013,09,30,15,43,12.90
2013,09,30,15,44,14.50
2013,09,30,15,45,19.30
2013,09,30,15,46,12.90
2013,09,30,15,47,20.90
2013,09,30,15,48,19.30
2013,09,30,15,49,16.10
2013,09,30,15,50,14.50
2013,09,30,15,51,11.30
2013,09,30,15,52,11.30
2013,09,30,15,53,16.10
2013,09,30,15,54,16.10
2013,09,30,15,55,11.30
2013,09,30,15,56,20.90
2013,09,30,15,57,14.50
2013,09,30,15,58,12.90
2013,09,30,15,59,17.70
2013,09,30,16,00,16.10
2013,09,30,16,01,22.50
2013,09,30,16,02,24.20
2013,09,30,16,03,22.50
2013,09,30,16,04,17.70
2013,09,30,16,05,24.20
2013,09,30,16,06,22.50
2013,09,30,16,07,20.90
2013,09,30,16,08,20.90
2013,09,30,16,09,19.30
2013,09,30,16,10,16.10
2013,09,30,16,11,14.50
2013,09,30,16,12,12.90
2013,09,30,16,13,16.10
2013,09,30,16,14,11.30
2013,09,30,16,15,17.70
2013,09,30,16,16,32.20
2013,09,30,16,17,33.80
2013,09,30,16,18,29.00
2013,09,30,16,19,33.80
2013,09,30,16,20,30.60
2013,09,30,16,21,19.30
2013,09,30,16,22,30.60
2013,09,30,16,23,24.20
2013,09,30,16,24,25.70
2013,09,30,16,25,24.20
2013,09,30,16,26,22.50
2013,09,30,16,27,30.60
2013,09,30,16,28,32.20
2013,09,30,16,29,22.50
2013,09,30,16,30,22.50
2013,09,30,16,31,14.50
2013,09,30,16,32,19.30
2013,09,30,16,33,14.50
2013,09,30,16,34,14.50
2013,09,30,16,35,16.10
2013,09,30,16,36,20.90
2013,09,30,16,37,17.70
2013,09,30,16,38,14.50
2013,09,30,16,39,17.70
2013,09,30,16,40,17.70
2013,09,30,16,41,14.50
2013,09,30,16,42,12.90
2013,09,30,16,43,19.30
2013,09,30,16,44,20.90
2013,09,30,16,45,33.80
2013,09,30,16,46,35.40
2013,09,30,16,47,30.60
2013,09,30,16,48,35.40
2013,09,30,16,49,19.30
2013,09,30,16,50,19.30
2013,09,30,16,51,27.40
2013,09,30,16,52,27.40
2013,09,30,16,53,20.90
2013,09,30,16,54,12.90
2013,09,30,16,55,12.90
2013,09,30,16,56,14.50
2013,09,30,16,57,17.70
2013,09,30,16,58,25.70
2013,09,30,16,59,19.30
2013,09,30,17,00,16.10
2013,09,30,17,01,20.90
2013,09,30,17,02,35.40
2013,09,30,17,03,20.90
2013,09,30,17,04,9.60
2013,09,30,17,05,14.50
2013,09,30,17,06,19.30
2013,09,30,17,07,22.50
2013,09,30,17,08,17.70
2013,09,30,17,09,16.10
2013,09,30,17,10,11.30
2013,09,30,17,11,12.90
2013,09,30,17,12,14.50
2013,09,30,17,13,16.10
2013,09,30,17,14,17.70
2013,09,30,17,15,9.60
2013,09,30,17,16,6.40
2013,09,30,17,17,4.80
2013,09,30,17,18,6.40
2013,09,30,17,19,9.60
2013,09,30,17,20,14.50
2013,09,30,17,21,17.70
2013,09,30,17,22,11.30
2013,09,30,17,23,11.30
2013,09,30,17,24,11.30
2013,09,30,17,25,11.30
2013,09,30,17,26,14.50
2013,09,30,17,27,14.50
2013,09,30,17,28,12.90
2013,09,30,17,29,6.40
2013,09,30,17,30,12.90
2013,09,30,17,31,8.10
2013,09,30,17,32,14.50
2013,09,30,17,33,17.70
2013,09,30,17,34,24.20
2013,09,30,17,35,16.10
2013,09,30,17,36,20.90
2013,09,30,17,37,16.10
2013,09,30,17,38,22.50
2013,09,30,17,39,16.10
2013,09,30,17,40,8.10
2013,09,30,17,41,11.30
2013,09,30,17,42,16.10
2013,09,30,17,43,12.90
2013,09,30,17,44,16.10
2013,09,30,17,45,19.30
2013,09,30,17,46,22.50
2013,09,30,17,47,25.70
2013,09,30,17,48,24.20
2013,09,30,17,49,17.70
2013,09,30,17,50,27.40
2013,09,30,17,51,22.50
2013,09,30,17,52,17.70
2013,09,30,17,53,24.20
2013,09,30,17,54,24.20
2013,09,30,17,55,12.90
2013,09,30,17,56,12.90
2013,09,30,17,57,8.10
2013,09,30,17,58,14.50
2013,09,30,17,59,17.70
2013,09,30,18,00,17.70
2013,09,30,18,01,14.50
2013,09,30,18,02,11.30
2013,09,30,18,03,8.10
2013,09,30,18,04,9.60
2013,09,30,18,05,3.20
2013,09,30,18,09,3.20
2013,09,30,18,10,4.80
2013,09,30,18,11,8.10
2013,09,30,18,12,6.40
2013,09,30,18,13,3.20
2013,09,30,18,14,11.30
2013,09,30,18,15,9.60
2013,09,30,18,16,8.10
2013,09,30,18,17,4.80
2013,09,30,18,18,9.60
2013,09,30,18,19,6.40
2013,09,30,18,20,4.80
2013,09,30,18,21,4.80
2013,09,30,18,22,8.10
2013,09,30,18,23,14.50
2013,09,30,18,24,11.30
2013,09,30,18,25,11.30
2013,09,30,18,26,9.60
2013,09,30,18,27,11.30
2013,09,30,18,28,8.10
2013,09,30,18,29,12.90
2013,09,30,18,30,19.30
2013,09,30,18,31,17.70
2013,09,30,18,32,12.90
2013,09,30,18,33,12.90
2013,09,30,18,34,16.10
2013,09,30,18,35,14.50
2013,09,30,18,36,17.70
2013,09,30,18,37,16.10
2013,09,30,18,38,14.50
2013,09,30,18,39,11.30
2013,09,30,18,40,22.50
2013,09,30,18,41,19.30
2013,09,30,18,42,19.30
2013,09,30,18,43,24.20
2013,09,30,18,44,16.10
2013,09,30,18,45,16.10
2013,09,30,18,46,16.10
2013,09,30,18,47,20.90
2013,09,30,18,48,14.50
2013,09,30,18,49,11.30
2013,09,30,18,50,14.50